Date_Time,Julian_Date,Latitude,Longitude,Instrument_Depth,U,V,Speed,Direction
(yyyy-mm-dd hh:mn:ss UTC),(JD),(+ deg. North),(+ deg. East),(m),(cm/s),(cm/s),(cm/s),(deg True)
1983-06-15 16:30:00 UTC,2445501.187500,28.7317,-95.2428,0201,13.64,-3.15,14.0000,103.0000
1983-06-15 17:00:00 UTC,2445501.208333,28.7317,-95.2428,0201,13.46,-3.86,14.0000,106.0000
1983-06-15 17:30:00 UTC,2445501.229167,28.7317,-95.2428,0201,13.39,-4.09,14.0000,107.0000
1983-06-15 18:00:00 UTC,2445501.250000,28.7317,-95.2428,0201,13.39,-4.09,14.0000,107.0000
1983-06-15 18:30:00 UTC,2445501.270833,28.7317,-95.2428,0201,14.49,-3.88,15.0000,105.0000
1983-06-15 19:00:00 UTC,2445501.291667,28.7317,-95.2428,0201,14.62,-3.37,15.0000,103.0000
1983-06-15 19:30:00 UTC,2445501.312500,28.7317,-95.2428,0201,14.72,-2.86,15.0000,101.0000
1983-06-15 20:00:00 UTC,2445501.333333,28.7317,-95.2428,0201,13.90,-1.71,14.0000,97.0000
1983-06-15 20:30:00 UTC,2445501.354167,28.7317,-95.2428,0201,14.00,-0.24,14.0000,91.0000
1983-06-15 21:00:00 UTC,2445501.375000,28.7317,-95.2428,0201,13.92,1.46,14.0000,84.0000
1983-06-15 21:30:00 UTC,2445501.395833,28.7317,-95.2428,0201,13.74,2.67,14.0000,79.0000
1983-06-15 22:00:00 UTC,2445501.416667,28.7317,-95.2428,0201,13.52,3.62,14.0000,75.0000
1983-06-15 22:30:00 UTC,2445501.437500,28.7317,-95.2428,0201,14.34,4.39,15.0000,73.0000
1983-06-15 23:00:00 UTC,2445501.458333,28.7317,-95.2428,0201,13.52,3.62,14.0000,75.0000
1983-06-15 23:30:00 UTC,2445501.479167,28.7317,-95.2428,0201,11.85,1.88,12.0000,81.0000
1983-06-16 00:00:00 UTC,2445501.500000,28.7317,-95.2428,0201,10.00,0.00,10.0000,90.0000
1983-06-16 00:30:00 UTC,2445501.520833,28.7317,-95.2428,0201,8.91,-1.25,9.0000,98.0000
1983-06-16 01:00:00 UTC,2445501.541667,28.7317,-95.2428,0201,8.83,-1.72,9.0000,101.0000
1983-06-16 01:30:00 UTC,2445501.562500,28.7317,-95.2428,0201,8.99,-0.47,9.0000,93.0000
1983-06-16 02:00:00 UTC,2445501.583333,28.7317,-95.2428,0201,9.90,1.39,10.0000,82.0000
1983-06-16 02:30:00 UTC,2445501.604167,28.7317,-95.2428,0201,8.83,1.72,9.0000,79.0000
1983-06-16 03:00:00 UTC,2445501.625000,28.7317,-95.2428,0201,5.93,0.94,6.0000,81.0000
1983-06-16 03:30:00 UTC,2445501.645833,28.7317,-95.2428,0201,3.99,0.21,4.0000,87.0000
1983-06-16 04:00:00 UTC,2445501.666667,28.7317,-95.2428,0201,3.90,-0.90,4.0000,103.0000
1983-06-16 04:30:00 UTC,2445501.687500,28.7317,-95.2428,0201,4.19,-2.72,5.0000,123.0000
1983-06-16 05:00:00 UTC,2445501.708333,28.7317,-95.2428,0201,3.77,-3.28,5.0000,131.0000
1983-06-16 05:30:00 UTC,2445501.729167,28.7317,-95.2428,0201,4.73,-3.69,6.0000,128.0000
1983-06-16 06:00:00 UTC,2445501.750000,28.7317,-95.2428,0201,3.83,-3.21,5.0000,130.0000
1983-06-16 06:30:00 UTC,2445501.770833,28.7317,-95.2428,0201,2.83,-2.83,4.0000,135.0000
1983-06-16 07:00:00 UTC,2445501.791667,28.7317,-95.2428,0201,1.58,-1.23,2.0000,128.0000
1983-06-16 07:30:00 UTC,2445501.812500,28.7317,-95.2428,0201,0.93,0.37,1.0000,68.0000
1983-06-16 08:00:00 UTC,2445501.833333,28.7317,-95.2428,0201,2.40,1.81,3.0000,53.0000
1983-06-16 08:30:00 UTC,2445501.854167,28.7317,-95.2428,0201,3.32,2.24,4.0000,56.0000
1983-06-16 09:00:00 UTC,2445501.875000,28.7317,-95.2428,0201,4.79,3.61,6.0000,53.0000
1983-06-16 09:30:00 UTC,2445501.895833,28.7317,-95.2428,0201,5.12,4.77,7.0000,47.0000
1983-06-16 10:00:00 UTC,2445501.916667,28.7317,-95.2428,0201,5.25,6.04,8.0000,41.0000
1983-06-16 10:30:00 UTC,2445501.937500,28.7317,-95.2428,0201,6.29,7.77,10.0000,39.0000
1983-06-16 11:00:00 UTC,2445501.958333,28.7317,-95.2428,0201,8.53,9.81,13.0000,41.0000
1983-06-16 11:30:00 UTC,2445501.979167,28.7317,-95.2428,0201,11.31,11.31,16.0000,45.0000
1983-06-16 12:00:00 UTC,2445502.000000,28.7317,-95.2428,0201,13.38,12.04,18.0000,48.0000
1983-06-16 12:30:00 UTC,2445502.020833,28.7317,-95.2428,0201,14.38,10.83,18.0000,53.0000
1983-06-16 13:00:00 UTC,2445502.041667,28.7317,-95.2428,0201,13.99,7.76,16.0000,61.0000
1983-06-16 13:30:00 UTC,2445502.062500,28.7317,-95.2428,0201,13.70,6.10,15.0000,66.0000
1983-06-16 14:00:00 UTC,2445502.083333,28.7317,-95.2428,0201,12.05,4.87,13.0000,68.0000
1983-06-16 14:30:00 UTC,2445502.104167,28.7317,-95.2428,0201,12.22,4.45,13.0000,70.0000
1983-06-16 15:00:00 UTC,2445502.125000,28.7317,-95.2428,0201,12.29,4.23,13.0000,71.0000
1983-06-16 15:30:00 UTC,2445502.145833,28.7317,-95.2428,0201,12.56,3.36,13.0000,75.0000
1983-06-16 16:00:00 UTC,2445502.166667,28.7317,-95.2428,0201,12.67,2.92,13.0000,77.0000
1983-06-16 16:30:00 UTC,2445502.187500,28.7317,-95.2428,0201,13.69,2.91,14.0000,78.0000
1983-06-16 17:00:00 UTC,2445502.208333,28.7317,-95.2428,0201,13.79,2.43,14.0000,80.0000
1983-06-16 17:30:00 UTC,2445502.229167,28.7317,-95.2428,0201,13.92,1.46,14.0000,84.0000
1983-06-16 18:00:00 UTC,2445502.250000,28.7317,-95.2428,0201,13.92,1.46,14.0000,84.0000
1983-06-16 18:30:00 UTC,2445502.270833,28.7317,-95.2428,0201,13.90,1.71,14.0000,83.0000
1983-06-16 19:00:00 UTC,2445502.291667,28.7317,-95.2428,0201,13.90,1.71,14.0000,83.0000
1983-06-16 19:30:00 UTC,2445502.312500,28.7317,-95.2428,0201,13.95,1.22,14.0000,85.0000
1983-06-16 20:00:00 UTC,2445502.333333,28.7317,-95.2428,0201,12.97,0.91,13.0000,86.0000
1983-06-16 20:30:00 UTC,2445502.354167,28.7317,-95.2428,0201,12.93,1.36,13.0000,84.0000
1983-06-16 21:00:00 UTC,2445502.375000,28.7317,-95.2428,0201,11.85,1.88,12.0000,81.0000
1983-06-16 21:30:00 UTC,2445502.395833,28.7317,-95.2428,0201,10.67,2.66,11.0000,76.0000
1983-06-16 22:00:00 UTC,2445502.416667,28.7317,-95.2428,0201,9.27,3.75,10.0000,68.0000
1983-06-16 22:30:00 UTC,2445502.437500,28.7317,-95.2428,0201,8.91,4.54,10.0000,63.0000
1983-06-16 23:00:00 UTC,2445502.458333,28.7317,-95.2428,0201,8.91,4.54,10.0000,63.0000
1983-06-16 23:30:00 UTC,2445502.479167,28.7317,-95.2428,0201,10.05,4.47,11.0000,66.0000
1983-06-17 00:00:00 UTC,2445502.500000,28.7317,-95.2428,0201,10.20,4.12,11.0000,68.0000
1983-06-17 00:30:00 UTC,2445502.520833,28.7317,-95.2428,0201,9.27,3.75,10.0000,68.0000
1983-06-17 01:00:00 UTC,2445502.541667,28.7317,-95.2428,0201,8.34,3.37,9.0000,68.0000
1983-06-17 01:30:00 UTC,2445502.562500,28.7317,-95.2428,0201,8.34,3.37,9.0000,68.0000
1983-06-17 02:00:00 UTC,2445502.583333,28.7317,-95.2428,0201,8.02,4.09,9.0000,63.0000
1983-06-17 02:30:00 UTC,2445502.604167,28.7317,-95.2428,0201,6.47,4.70,8.0000,54.0000
1983-06-17 03:00:00 UTC,2445502.625000,28.7317,-95.2428,0201,4.41,5.44,7.0000,39.0000
1983-06-17 03:30:00 UTC,2445502.645833,28.7317,-95.2428,0201,2.74,6.44,7.0000,23.0000
1983-06-17 04:00:00 UTC,2445502.666667,28.7317,-95.2428,0201,2.05,6.69,7.0000,17.0000
1983-06-17 04:30:00 UTC,2445502.687500,28.7317,-95.2428,0201,2.28,6.62,7.0000,19.0000
1983-06-17 05:00:00 UTC,2445502.708333,28.7317,-95.2428,0201,2.74,6.44,7.0000,23.0000
1983-06-17 05:30:00 UTC,2445502.729167,28.7317,-95.2428,0201,3.88,7.00,8.0000,29.0000
1983-06-17 06:00:00 UTC,2445502.750000,28.7317,-95.2428,0201,4.70,6.47,8.0000,36.0000
1983-06-17 06:30:00 UTC,2445502.770833,28.7317,-95.2428,0201,4.50,5.36,7.0000,40.0000
1983-06-17 07:00:00 UTC,2445502.791667,28.7317,-95.2428,0201,3.94,4.53,6.0000,41.0000
1983-06-17 07:30:00 UTC,2445502.812500,28.7317,-95.2428,0201,4.09,4.39,6.0000,43.0000
1983-06-17 08:00:00 UTC,2445502.833333,28.7317,-95.2428,0201,5.04,4.86,7.0000,46.0000
1983-06-17 08:30:00 UTC,2445502.854167,28.7317,-95.2428,0201,5.95,5.35,8.0000,48.0000
1983-06-17 09:00:00 UTC,2445502.875000,28.7317,-95.2428,0201,6.99,5.66,9.0000,51.0000
1983-06-17 09:30:00 UTC,2445502.895833,28.7317,-95.2428,0201,8.09,5.88,10.0000,54.0000
1983-06-17 10:00:00 UTC,2445502.916667,28.7317,-95.2428,0201,8.90,6.47,11.0000,54.0000
1983-06-17 10:30:00 UTC,2445502.937500,28.7317,-95.2428,0201,8.19,5.74,10.0000,55.0000
1983-06-17 11:00:00 UTC,2445502.958333,28.7317,-95.2428,0201,8.09,5.88,10.0000,54.0000
1983-06-17 11:30:00 UTC,2445502.979167,28.7317,-95.2428,0201,7.88,6.16,10.0000,52.0000
1983-06-17 12:00:00 UTC,2445503.000000,28.7317,-95.2428,0201,8.67,6.77,11.0000,52.0000
1983-06-17 12:30:00 UTC,2445503.020833,28.7317,-95.2428,0201,9.95,6.71,12.0000,56.0000
1983-06-17 13:00:00 UTC,2445503.041667,28.7317,-95.2428,0201,10.50,5.82,12.0000,61.0000
1983-06-17 13:30:00 UTC,2445503.062500,28.7317,-95.2428,0201,10.79,5.26,12.0000,64.0000
1983-06-17 14:00:00 UTC,2445503.083333,28.7317,-95.2428,0201,10.13,4.30,11.0000,67.0000
1983-06-17 14:30:00 UTC,2445503.104167,28.7317,-95.2428,0201,8.09,3.95,9.0000,64.0000
1983-06-17 15:00:00 UTC,2445503.125000,28.7317,-95.2428,0201,6.39,4.81,8.0000,53.0000
1983-06-17 15:30:00 UTC,2445503.145833,28.7317,-95.2428,0201,3.94,4.53,6.0000,41.0000
1983-06-17 16:00:00 UTC,2445503.166667,28.7317,-95.2428,0201,3.00,5.20,6.0000,30.0000
1983-06-17 16:30:00 UTC,2445503.187500,28.7317,-95.2428,0201,2.05,5.64,6.0000,20.0000
1983-06-17 17:00:00 UTC,2445503.208333,28.7317,-95.2428,0201,1.95,5.67,6.0000,19.0000
1983-06-17 17:30:00 UTC,2445503.229167,28.7317,-95.2428,0201,2.62,6.49,7.0000,22.0000
1983-06-17 18:00:00 UTC,2445503.250000,28.7317,-95.2428,0201,3.66,8.22,9.0000,24.0000
1983-06-17 18:30:00 UTC,2445503.270833,28.7317,-95.2428,0201,4.82,9.89,11.0000,26.0000
1983-06-17 19:00:00 UTC,2445503.291667,28.7317,-95.2428,0201,6.00,10.39,12.0000,30.0000
1983-06-17 19:30:00 UTC,2445503.312500,28.7317,-95.2428,0201,7.39,9.46,12.0000,38.0000
1983-06-17 20:00:00 UTC,2445503.333333,28.7317,-95.2428,0201,9.19,7.71,12.0000,50.0000
1983-06-17 20:30:00 UTC,2445503.354167,28.7317,-95.2428,0201,10.50,5.82,12.0000,61.0000
1983-06-17 21:00:00 UTC,2445503.375000,28.7317,-95.2428,0201,11.05,4.69,12.0000,67.0000
1983-06-17 21:30:00 UTC,2445503.395833,28.7317,-95.2428,0201,12.29,4.23,13.0000,71.0000
1983-06-17 22:00:00 UTC,2445503.416667,28.7317,-95.2428,0201,13.46,3.86,14.0000,74.0000
1983-06-17 22:30:00 UTC,2445503.437500,28.7317,-95.2428,0201,14.49,3.88,15.0000,75.0000
1983-06-17 23:00:00 UTC,2445503.458333,28.7317,-95.2428,0201,14.67,3.12,15.0000,78.0000
1983-06-17 23:30:00 UTC,2445503.479167,28.7317,-95.2428,0201,15.84,2.23,16.0000,82.0000
1983-06-18 00:00:00 UTC,2445503.500000,28.7317,-95.2428,0201,15.84,2.23,16.0000,82.0000
1983-06-18 00:30:00 UTC,2445503.520833,28.7317,-95.2428,0201,15.84,2.23,16.0000,82.0000
1983-06-18 01:00:00 UTC,2445503.541667,28.7317,-95.2428,0201,15.96,1.12,16.0000,86.0000
1983-06-18 01:30:00 UTC,2445503.562500,28.7317,-95.2428,0201,15.99,0.56,16.0000,88.0000
1983-06-18 02:00:00 UTC,2445503.583333,28.7317,-95.2428,0201,16.00,0.00,16.0000,90.0000
1983-06-18 02:30:00 UTC,2445503.604167,28.7317,-95.2428,0201,15.94,-1.39,16.0000,95.0000
1983-06-18 03:00:00 UTC,2445503.625000,28.7317,-95.2428,0201,14.67,-3.12,15.0000,102.0000
1983-06-18 03:30:00 UTC,2445503.645833,28.7317,-95.2428,0201,11.35,-3.91,12.0000,109.0000
1983-06-18 04:00:00 UTC,2445503.666667,28.7317,-95.2428,0201,9.71,-5.16,11.0000,118.0000
1983-06-18 04:30:00 UTC,2445503.687500,28.7317,-95.2428,0201,9.12,-6.15,11.0000,124.0000
1983-06-18 05:00:00 UTC,2445503.708333,28.7317,-95.2428,0201,9.23,-5.99,11.0000,123.0000
1983-06-18 05:30:00 UTC,2445503.729167,28.7317,-95.2428,0201,10.18,-6.36,12.0000,122.0000
1983-06-18 06:00:00 UTC,2445503.750000,28.7317,-95.2428,0201,9.19,-7.71,12.0000,130.0000
1983-06-18 06:30:00 UTC,2445503.770833,28.7317,-95.2428,0201,5.67,-9.43,11.0000,149.0000
1983-06-18 07:00:00 UTC,2445503.791667,28.7317,-95.2428,0201,2.92,-12.67,13.0000,167.0000
1983-06-18 07:30:00 UTC,2445503.812500,28.7317,-95.2428,0201,1.05,-14.96,15.0000,176.0000
1983-06-18 08:00:00 UTC,2445503.833333,28.7317,-95.2428,0201,0.63,-17.99,18.0000,178.0000
1983-06-18 08:30:00 UTC,2445503.854167,28.7317,-95.2428,0201,0.31,-18.00,18.0000,179.0000
1983-06-18 09:00:00 UTC,2445503.875000,28.7317,-95.2428,0201,-1.78,-16.91,17.0000,186.0000
1983-06-18 09:30:00 UTC,2445503.895833,28.7317,-95.2428,0201,-4.35,-17.47,18.0000,194.0000
1983-06-18 10:00:00 UTC,2445503.916667,28.7317,-95.2428,0201,-5.53,-16.07,17.0000,199.0000
1983-06-18 10:30:00 UTC,2445503.937500,28.7317,-95.2428,0201,-6.57,-12.36,14.0000,208.0000
1983-06-18 11:00:00 UTC,2445503.958333,28.7317,-95.2428,0201,-6.56,-7.55,10.0000,221.0000
1983-06-18 11:30:00 UTC,2445503.979167,28.7317,-95.2428,0201,-6.04,-5.25,8.0000,229.0000
1983-06-18 12:00:00 UTC,2445504.000000,28.7317,-95.2428,0201,-5.80,-3.91,7.0000,236.0000
1983-06-18 12:30:00 UTC,2445504.020833,28.7317,-95.2428,0201,-7.00,-3.88,8.0000,241.0000
1983-06-18 13:00:00 UTC,2445504.041667,28.7317,-95.2428,0201,-6.29,-3.07,7.0000,244.0000
1983-06-18 13:30:00 UTC,2445504.062500,28.7317,-95.2428,0201,-5.67,-1.95,6.0000,251.0000
1983-06-18 14:00:00 UTC,2445504.083333,28.7317,-95.2428,0201,-6.00,-0.00,6.0000,270.0000
1983-06-18 14:30:00 UTC,2445504.104167,28.7317,-95.2428,0201,-5.56,2.25,6.0000,292.0000
1983-06-18 15:00:00 UTC,2445504.125000,28.7317,-95.2428,0201,-4.33,2.50,5.0000,300.0000
1983-06-18 15:30:00 UTC,2445504.145833,28.7317,-95.2428,0201,-3.78,1.30,4.0000,289.0000
1983-06-18 16:00:00 UTC,2445504.166667,28.7317,-95.2428,0201,-5.00,-0.17,5.0000,268.0000
1983-06-18 16:30:00 UTC,2445504.187500,28.7317,-95.2428,0201,-6.44,-2.74,7.0000,247.0000
1983-06-18 17:00:00 UTC,2445504.208333,28.7317,-95.2428,0201,-7.46,-5.03,9.0000,236.0000
1983-06-18 17:30:00 UTC,2445504.229167,28.7317,-95.2428,0201,-7.77,-6.29,10.0000,231.0000
1983-06-18 18:00:00 UTC,2445504.250000,28.7317,-95.2428,0201,-6.69,-6.02,9.0000,228.0000
1983-06-18 18:30:00 UTC,2445504.270833,28.7317,-95.2428,0201,-7.66,-6.43,10.0000,230.0000
1983-06-18 19:00:00 UTC,2445504.291667,28.7317,-95.2428,0201,-10.24,-8.00,13.0000,232.0000
1983-06-18 19:30:00 UTC,2445504.312500,28.7317,-95.2428,0201,-13.21,-10.70,17.0000,231.0000
1983-06-18 20:00:00 UTC,2445504.333333,28.7317,-95.2428,0201,-15.32,-12.86,20.0000,230.0000
1983-06-18 20:30:00 UTC,2445504.354167,28.7317,-95.2428,0201,-15.76,-12.31,20.0000,232.0000
1983-06-18 21:00:00 UTC,2445504.375000,28.7317,-95.2428,0201,-14.97,-11.70,19.0000,232.0000
1983-06-18 21:30:00 UTC,2445504.395833,28.7317,-95.2428,0201,-14.34,-12.47,19.0000,229.0000
1983-06-18 22:00:00 UTC,2445504.416667,28.7317,-95.2428,0201,-13.67,-13.20,19.0000,226.0000
1983-06-18 22:30:00 UTC,2445504.437500,28.7317,-95.2428,0201,-13.67,-13.20,19.0000,226.0000
1983-06-18 23:00:00 UTC,2445504.458333,28.7317,-95.2428,0201,-13.90,-12.96,19.0000,227.0000
1983-06-18 23:30:00 UTC,2445504.479167,28.7317,-95.2428,0201,-11.51,-11.11,16.0000,226.0000
1983-06-19 00:00:00 UTC,2445504.500000,28.7317,-95.2428,0201,-9.73,-10.07,14.0000,224.0000
1983-06-19 00:30:00 UTC,2445504.520833,28.7317,-95.2428,0201,-10.07,-9.73,14.0000,226.0000
1983-06-19 01:00:00 UTC,2445504.541667,28.7317,-95.2428,0201,-10.97,-10.23,15.0000,227.0000
1983-06-19 01:30:00 UTC,2445504.562500,28.7317,-95.2428,0201,-11.89,-10.71,16.0000,228.0000
1983-06-19 02:00:00 UTC,2445504.583333,28.7317,-95.2428,0201,-12.08,-10.50,16.0000,229.0000
1983-06-19 02:30:00 UTC,2445504.604167,28.7317,-95.2428,0201,-10.72,-9.00,14.0000,230.0000
1983-06-19 03:00:00 UTC,2445504.625000,28.7317,-95.2428,0201,-10.57,-9.18,14.0000,229.0000
1983-06-19 03:30:00 UTC,2445504.645833,28.7317,-95.2428,0201,-10.79,-10.42,15.0000,226.0000
1983-06-19 04:00:00 UTC,2445504.666667,28.7317,-95.2428,0201,-11.15,-12.83,17.0000,221.0000
1983-06-19 04:30:00 UTC,2445504.687500,28.7317,-95.2428,0201,-10.23,-13.58,17.0000,217.0000
1983-06-19 05:00:00 UTC,2445504.708333,28.7317,-95.2428,0201,-8.48,-13.57,16.0000,212.0000
1983-06-19 05:30:00 UTC,2445504.729167,28.7317,-95.2428,0201,-7.50,-12.99,15.0000,210.0000
1983-06-19 06:00:00 UTC,2445504.750000,28.7317,-95.2428,0201,-7.01,-14.38,16.0000,206.0000
1983-06-19 06:30:00 UTC,2445504.770833,28.7317,-95.2428,0201,-7.12,-17.62,19.0000,202.0000
1983-06-19 07:00:00 UTC,2445504.791667,28.7317,-95.2428,0201,-6.51,-18.91,20.0000,199.0000
1983-06-19 07:30:00 UTC,2445504.812500,28.7317,-95.2428,0201,-6.49,-19.97,21.0000,198.0000
1983-06-19 08:00:00 UTC,2445504.833333,28.7317,-95.2428,0201,-5.85,-19.13,20.0000,197.0000
1983-06-19 08:30:00 UTC,2445504.854167,28.7317,-95.2428,0201,-5.86,-17.02,18.0000,199.0000
1983-06-19 09:00:00 UTC,2445504.875000,28.7317,-95.2428,0201,-7.18,-15.41,17.0000,205.0000
1983-06-19 09:30:00 UTC,2445504.895833,28.7317,-95.2428,0201,-9.01,-14.42,17.0000,212.0000
1983-06-19 10:00:00 UTC,2445504.916667,28.7317,-95.2428,0201,-9.40,-12.94,16.0000,216.0000
1983-06-19 10:30:00 UTC,2445504.937500,28.7317,-95.2428,0201,-9.44,-11.66,15.0000,219.0000
1983-06-19 11:00:00 UTC,2445504.958333,28.7317,-95.2428,0201,-9.37,-10.40,14.0000,222.0000
1983-06-19 11:30:00 UTC,2445504.979167,28.7317,-95.2428,0201,-12.43,-10.07,16.0000,231.0000
1983-06-19 12:00:00 UTC,2445505.000000,28.7317,-95.2428,0201,-16.18,-7.89,18.0000,244.0000
1983-06-19 12:30:00 UTC,2445505.020833,28.7317,-95.2428,0201,-16.34,-4.69,17.0000,254.0000
1983-06-19 13:00:00 UTC,2445505.041667,28.7317,-95.2428,0201,-9.89,-4.82,11.0000,244.0000
1983-06-19 13:30:00 UTC,2445505.062500,28.7317,-95.2428,0201,-5.33,-9.62,11.0000,209.0000
1983-06-19 14:00:00 UTC,2445505.083333,28.7317,-95.2428,0201,-5.86,-13.81,15.0000,203.0000
1983-06-19 14:30:00 UTC,2445505.104167,28.7317,-95.2428,0201,-5.86,-17.02,18.0000,199.0000
1983-06-19 15:00:00 UTC,2445505.125000,28.7317,-95.2428,0201,-4.60,-18.44,19.0000,194.0000
1983-06-19 15:30:00 UTC,2445505.145833,28.7317,-95.2428,0201,-4.27,-18.51,19.0000,193.0000
1983-06-19 16:00:00 UTC,2445505.166667,28.7317,-95.2428,0201,-4.66,-17.39,18.0000,195.0000
1983-06-19 16:30:00 UTC,2445505.187500,28.7317,-95.2428,0201,-6.51,-14.62,16.0000,204.0000
1983-06-19 17:00:00 UTC,2445505.208333,28.7317,-95.2428,0201,-9.03,-11.98,15.0000,217.0000
1983-06-19 17:30:00 UTC,2445505.229167,28.7317,-95.2428,0201,-9.73,-10.07,14.0000,224.0000
1983-06-19 18:00:00 UTC,2445505.250000,28.7317,-95.2428,0201,-9.00,-10.72,14.0000,220.0000
1983-06-19 18:30:00 UTC,2445505.270833,28.7317,-95.2428,0201,-7.73,-12.86,15.0000,211.0000
1983-06-19 19:00:00 UTC,2445505.291667,28.7317,-95.2428,0201,-7.61,-16.31,18.0000,205.0000
1983-06-19 19:30:00 UTC,2445505.312500,28.7317,-95.2428,0201,-8.13,-18.27,20.0000,204.0000
1983-06-19 20:00:00 UTC,2445505.333333,28.7317,-95.2428,0201,-8.45,-18.13,20.0000,205.0000
1983-06-19 20:30:00 UTC,2445505.354167,28.7317,-95.2428,0201,-7.73,-17.36,19.0000,204.0000
1983-06-19 21:00:00 UTC,2445505.375000,28.7317,-95.2428,0201,-7.42,-17.49,19.0000,203.0000
1983-06-19 21:30:00 UTC,2445505.395833,28.7317,-95.2428,0201,-7.73,-17.36,19.0000,204.0000
1983-06-19 22:00:00 UTC,2445505.416667,28.7317,-95.2428,0201,-7.42,-17.49,19.0000,203.0000
1983-06-19 22:30:00 UTC,2445505.437500,28.7317,-95.2428,0201,-7.81,-18.41,20.0000,203.0000
1983-06-19 23:00:00 UTC,2445505.458333,28.7317,-95.2428,0201,-9.30,-19.94,22.0000,205.0000
1983-06-19 23:30:00 UTC,2445505.479167,28.7317,-95.2428,0201,-10.80,-20.31,23.0000,208.0000
1983-06-20 00:00:00 UTC,2445505.500000,28.7317,-95.2428,0201,-11.64,-20.99,24.0000,209.0000
1983-06-20 00:30:00 UTC,2445505.520833,28.7317,-95.2428,0201,-12.00,-20.78,24.0000,210.0000
1983-06-20 01:00:00 UTC,2445505.541667,28.7317,-95.2428,0201,-12.00,-20.78,24.0000,210.0000
1983-06-20 01:30:00 UTC,2445505.562500,28.7317,-95.2428,0201,-10.80,-20.31,23.0000,208.0000
1983-06-20 02:00:00 UTC,2445505.583333,28.7317,-95.2428,0201,-9.35,-21.01,23.0000,204.0000
1983-06-20 02:30:00 UTC,2445505.604167,28.7317,-95.2428,0201,-8.21,-22.55,24.0000,200.0000
1983-06-20 03:00:00 UTC,2445505.625000,28.7317,-95.2428,0201,-7.02,-22.95,24.0000,197.0000
1983-06-20 03:30:00 UTC,2445505.645833,28.7317,-95.2428,0201,-5.56,-22.32,23.0000,194.0000
1983-06-20 04:00:00 UTC,2445505.666667,28.7317,-95.2428,0201,-3.44,-21.73,22.0000,189.0000
1983-06-20 04:30:00 UTC,2445505.687500,28.7317,-95.2428,0201,0.00,-19.00,19.0000,180.0000
1983-06-20 05:00:00 UTC,2445505.708333,28.7317,-95.2428,0201,1.99,-18.90,19.0000,174.0000
1983-06-20 05:30:00 UTC,2445505.729167,28.7317,-95.2428,0201,0.00,-21.00,21.0000,180.0000
1983-06-20 06:00:00 UTC,2445505.750000,28.7317,-95.2428,0201,-3.99,-22.65,23.0000,190.0000
1983-06-20 06:30:00 UTC,2445505.770833,28.7317,-95.2428,0201,-7.02,-22.95,24.0000,197.0000
1983-06-20 07:00:00 UTC,2445505.791667,28.7317,-95.2428,0201,-8.62,-21.33,23.0000,202.0000
1983-06-20 07:30:00 UTC,2445505.812500,28.7317,-95.2428,0201,-10.08,-20.67,23.0000,206.0000
1983-06-20 08:00:00 UTC,2445505.833333,28.7317,-95.2428,0201,-10.33,-19.42,22.0000,208.0000
1983-06-20 08:30:00 UTC,2445505.854167,28.7317,-95.2428,0201,-10.67,-19.24,22.0000,209.0000
1983-06-20 09:00:00 UTC,2445505.875000,28.7317,-95.2428,0201,-11.50,-19.92,23.0000,210.0000
1983-06-20 09:30:00 UTC,2445505.895833,28.7317,-95.2428,0201,-12.19,-19.51,23.0000,212.0000
1983-06-20 10:00:00 UTC,2445505.916667,28.7317,-95.2428,0201,-12.93,-17.80,22.0000,216.0000
1983-06-20 10:30:00 UTC,2445505.937500,28.7317,-95.2428,0201,-13.20,-13.67,19.0000,224.0000
1983-06-20 11:00:00 UTC,2445505.958333,28.7317,-95.2428,0201,-12.94,-9.40,16.0000,234.0000
1983-06-20 11:30:00 UTC,2445505.979167,28.7317,-95.2428,0201,-11.68,-5.70,13.0000,244.0000
1983-06-20 12:00:00 UTC,2445506.000000,28.7317,-95.2428,0201,-11.28,-4.10,12.0000,250.0000
1983-06-20 12:30:00 UTC,2445506.020833,28.7317,-95.2428,0201,-9.66,-2.59,10.0000,255.0000
1983-06-20 13:00:00 UTC,2445506.041667,28.7317,-95.2428,0201,-8.93,-1.10,9.0000,263.0000
1983-06-20 13:30:00 UTC,2445506.062500,28.7317,-95.2428,0201,-7.00,-0.24,7.0000,268.0000
1983-06-20 14:00:00 UTC,2445506.083333,28.7317,-95.2428,0201,-5.99,-0.31,6.0000,267.0000
1983-06-20 14:30:00 UTC,2445506.104167,28.7317,-95.2428,0201,-6.00,0.21,6.0000,272.0000
1983-06-20 15:00:00 UTC,2445506.125000,28.7317,-95.2428,0201,-5.85,1.35,6.0000,283.0000
1983-06-20 15:30:00 UTC,2445506.145833,28.7317,-95.2428,0201,-5.60,2.15,6.0000,291.0000
1983-06-20 16:00:00 UTC,2445506.166667,28.7317,-95.2428,0201,-4.49,2.19,5.0000,296.0000
1983-06-20 16:30:00 UTC,2445506.187500,28.7317,-95.2428,0201,-2.57,1.55,3.0000,301.0000
1983-06-20 17:00:00 UTC,2445506.208333,28.7317,-95.2428,0201,-1.66,1.12,2.0000,304.0000
1983-06-20 17:30:00 UTC,2445506.229167,28.7317,-95.2428,0201,-0.03,2.00,2.0000,359.0000
1983-06-20 18:00:00 UTC,2445506.250000,28.7317,-95.2428,0201,3.51,11.48,12.0000,17.0000
1983-06-20 18:30:00 UTC,2445506.270833,28.7317,-95.2428,0201,6.84,19.86,21.0000,19.0000
1983-06-20 19:00:00 UTC,2445506.291667,28.7317,-95.2428,0201,8.45,15.89,18.0000,28.0000
1983-06-20 19:30:00 UTC,2445506.312500,28.7317,-95.2428,0201,9.62,5.33,11.0000,61.0000
1983-06-20 20:00:00 UTC,2445506.333333,28.7317,-95.2428,0201,8.28,-3.52,9.0000,113.0000
1983-06-20 20:30:00 UTC,2445506.354167,28.7317,-95.2428,0201,8.49,-8.49,12.0000,135.0000
1983-06-20 21:00:00 UTC,2445506.375000,28.7317,-95.2428,0201,9.37,-10.40,14.0000,138.0000
1983-06-20 21:30:00 UTC,2445506.395833,28.7317,-95.2428,0201,11.11,-11.51,16.0000,136.0000
1983-06-20 22:00:00 UTC,2445506.416667,28.7317,-95.2428,0201,12.08,-10.50,16.0000,131.0000
1983-06-20 22:30:00 UTC,2445506.437500,28.7317,-95.2428,0201,13.26,-8.95,16.0000,124.0000
1983-06-20 23:00:00 UTC,2445506.458333,28.7317,-95.2428,0201,14.38,-7.01,16.0000,116.0000
1983-06-20 23:30:00 UTC,2445506.479167,28.7317,-95.2428,0201,15.04,-5.47,16.0000,110.0000
1983-06-21 00:00:00 UTC,2445506.500000,28.7317,-95.2428,0201,16.34,-4.69,17.0000,106.0000
1983-06-21 00:30:00 UTC,2445506.520833,28.7317,-95.2428,0201,16.74,-2.95,17.0000,100.0000
1983-06-21 01:00:00 UTC,2445506.541667,28.7317,-95.2428,0201,17.96,-1.26,18.0000,94.0000
1983-06-21 01:30:00 UTC,2445506.562500,28.7317,-95.2428,0201,19.00,-0.33,19.0000,91.0000
1983-06-21 02:00:00 UTC,2445506.583333,28.7317,-95.2428,0201,21.00,0.37,21.0000,89.0000
1983-06-21 02:30:00 UTC,2445506.604167,28.7317,-95.2428,0201,20.92,1.83,21.0000,85.0000
1983-06-21 03:00:00 UTC,2445506.625000,28.7317,-95.2428,0201,20.84,2.56,21.0000,83.0000
1983-06-21 03:30:00 UTC,2445506.645833,28.7317,-95.2428,0201,18.77,2.97,19.0000,81.0000
1983-06-21 04:00:00 UTC,2445506.666667,28.7317,-95.2428,0201,17.67,3.43,18.0000,79.0000
1983-06-21 04:30:00 UTC,2445506.687500,28.7317,-95.2428,0201,16.63,3.53,17.0000,78.0000
1983-06-21 05:00:00 UTC,2445506.708333,28.7317,-95.2428,0201,15.65,3.33,16.0000,78.0000
1983-06-21 05:30:00 UTC,2445506.729167,28.7317,-95.2428,0201,13.58,3.39,14.0000,76.0000